EW1065 Weather Reports


Display with metric or nautical units.
time (UTC)temp
F
wind
direction
speed
MPH
gust
MPH
rain 1hr
in
rain 24hr
in
rain mn
in
humidity
%
barometer
mb
20260508235020 68 270 1.0 3.0 0.00 0.00 0.00 46 1010.4
20260508234018 68 225 1.0 5.0 0.00 0.00 0.00 46 1010.4
20260508233020 69 270 1.0 5.0 0.00 0.00 0.00 47 1010.4
20260508232040 69 270 2.0 5.0 0.00 0.00 0.00 45 1010.4
20260508231020 69 225 2.0 7.0 0.00 0.00 0.00 46 1010.4
20260508230040 69 248 2.0 7.0 0.00 0.00 0.00 44 1010.5
20260508225018 70 270 2.0 9.0 0.00 0.00 0.00 44 1010.6
20260508224040 71 270 1.0 4.0 0.00 0.00 0.00 44 1010.6
20260508223020 72 225 1.0 4.0 0.00 0.00 0.00 41 1010.4
20260508222020 72 225 1.0 4.0 0.00 0.00 0.00 42 1010.4
20260508221018 73 270 1.0 5.0 0.00 0.00 0.00 40 1010.4
20260508220020 73 113 2.0 7.0 0.00 0.00 0.00 40 1010.2
20260508215040 73 248 2.0 7.0 0.00 0.00 0.00 40 1010.2
20260508214020 73 270 1.0 3.0 0.00 0.00 0.00 43 1010.4
20260508213020 73 270 2.0 4.0 0.00 0.00 0.00 41 1010.5
20260508212040 73 270 1.0 4.0 0.00 0.00 0.00 41 1010.6
20260508211018 73 248 2.0 7.0 0.00 0.00 0.00 43 1010.7
20260508210040 73 270 2.0 7.0 0.00 0.00 0.00 41 1010.8
20260508205040 73 225 2.0 6.0 0.00 0.00 0.00 39 1011.0
20260508204018 73 248 2.0 7.0 0.00 0.00 0.00 40 1011.0
20260508203040 73 270 2.0 6.0 0.00 0.00 0.00 40 1011.2
20260508202038 73 225 2.0 6.0 0.00 0.00 0.00 43 1011.4
20260508201040 73 270 2.0 8.0 0.00 0.00 0.00 41 1011.7
20260508200020 73 248 3.0 7.0 0.00 0.00 0.00 40 1011.9
20260508195020 73 225 2.0 7.0 0.00 0.00 0.00 41 1012.1
20260508194021 73 113 1.0 5.0 0.00 0.00 0.00 43 1012.1
20260508193020 73 225 2.0 6.0 0.00 0.00 0.00 39 1012.6
20260508192020 73 248 1.0 7.0 0.00 0.00 0.00 44 1012.6
20260508191018 73 248 2.0 5.0 0.00 0.00 0.00 42 1012.8
20260508190018 73 293 2.0 7.0 0.00 0.00 0.00 44 1012.6
20260508185020 73 315 2.0 8.0 0.00 0.00 0.00 42 1012.5
20260508184020 72 68 2.0 8.0 0.00 0.00 0.00 42 1012.4
20260508183018 72 225 1.0 5.0 0.00 0.00 0.00 44 1012.6
20260508182020 72 270 2.0 7.0 0.00 0.00 0.00 41 1013.0
20260508181040 72 225 1.0 5.0 0.00 0.00 0.00 42 1013.1
20260508180020 72 0.0 2.0 0.00 0.00 0.00 42 1013.3
20260508175018 71 270 2.0 5.0 0.00 0.00 0.00 48 1013.6
20260508174042 71 225 1.0 6.0 0.00 0.00 0.00 43 1013.7
20260508173020 71 270 2.0 7.0 0.00 0.00 0.00 46 1013.9
20260508172020 70 248 2.0 6.0 0.00 0.00 0.00 45 1014.3
20260508171020 70 248 1.0 5.0 0.00 0.00 0.00 44 1014.3
20260508170020 70 90 2.0 6.0 0.00 0.00 0.00 44 1014.5
20260508165020 70 225 1.0 5.0 0.00 0.00 0.00 44 1014.8
20260508164018 70 203 1.0 4.0 0.00 0.00 0.00 49 1015.0
20260508163018 69 135 1.0 3.0 0.00 0.00 0.00 48 1015.1
20260508162020 68 0 1.0 6.0 0.00 0.00 0.00 47 1015.3
20260508161040 68 270 1.0 5.0 0.00 0.00 0.00 48 1015.5
20260508160038 67 270 2.0 7.0 0.00 0.00 0.00 47 1015.6
20260508155018 67 248 2.0 6.0 0.00 0.00 0.00 48 1015.7
20260508154020 66 248 2.0 6.0 0.00 0.00 0.00 54 1016.0
20260508153020 66 225 2.0 7.0 0.00 0.00 0.00 49 1016.1
20260508152018 66 203 2.0 4.0 0.00 0.00 0.00 50 1016.1
20260508151020 65 203 1.0 8.0 0.00 0.00 0.00 50 1016.4
20260508150020 64 203 1.0 6.0 0.00 0.00 0.00 50 1016.4
20260508145020 63 293 1.0 6.0 0.00 0.00 0.00 58 1016.4
20260508144020 63 225 1.0 4.0 0.00 0.00 0.00 61 1016.6
20260508143018 61 180 1.0 3.0 0.00 0.00 0.00 60 1016.5
20260508142020 59 90 1.0 2.0 0.00 0.00 0.00 64 1016.6
20260508141020 58 113 1.0 3.0 0.00 0.00 0.00 64 1016.4
20260508140018 57 0.0 3.0 0.00 0.00 0.00 66 1016.6
20260508135018 55 0.0 2.0 0.00 0.00 0.00 68 1016.6
20260508134020 54 0.0 1.0 0.00 0.00 0.00 68 1016.6
20260508133040 54 0.0 1.0 0.00 0.00 0.00 70 1016.5
20260508132020 53 0.0 4.0 0.00 0.00 0.00 72 1016.5
20260508131018 52 0.0 2.0 0.00 0.00 0.00 74 1016.6
20260508130020 50 0.0 2.0 0.00 0.00 0.00 78 1016.4
20260508125020 49 0.0 1.0 0.00 0.00 0.00 82 1016.5
20260508124018 48 0.0 1.0 0.00 0.00 0.00 88 1016.5
20260508123018 46 0.0 1.0 0.00 0.00 0.00 94 1016.4
20260508122040 44 0.0 1.0 0.00 0.00 0.00 98 1016.3
20260508121020 43 0.0 0.0 0.00 0.00 0.00 98 1016.3
20260508120020 42 0.0 0.0 0.00 0.00 0.00 98 1016.2
20260508115020 40 0.0 0.0 0.00 0.00 0.00 98 1016.1
20260508114020 39 0.0 0.0 0.00 0.00 0.00 98 1016.1
20260508113021 39 0.0 0.0 0.00 0.00 0.00 98 1015.9
20260508112020 39 0.0 0.0 0.00 0.00 0.00 97 1016.0
20260508111018 38 0.0 0.0 0.00 0.00 0.00 97 1015.8
20260508110018 38 0.0 0.0 0.00 0.00 0.00 97 1015.8
20260508105020 38 0.0 0.0 0.00 0.00 0.00 97 1015.8
20260508104020 38 0.0 0.0 0.00 0.00 0.00 97 1015.7
20260508103018 38 0.0 0.0 0.00 0.00 0.00 97 1015.7
20260508102018 38 0.0 0.0 0.00 0.00 0.00 97 1015.6
20260508101020 38 0.0 0.0 0.00 0.00 0.00 97 1015.6
20260508100040 38 0.0 0.0 0.00 0.00 0.00 97 1015.7
20260508095018 39 0.0 0.0 0.00 0.00 0.00 97 1015.8
20260508094018 38 0.0 0.0 0.00 0.00 0.00 97 1015.8
20260508093020 38 0.0 0.0 0.00 0.00 0.00 97 1015.7
20260508092020 38 0.0 0.0 0.00 0.00 0.00 97 1015.7
20260508091020 38 0.0 0.0 0.00 0.00 0.00 97 1015.7
20260508090018 38 0.0 0.0 0.00 0.00 0.00 97 1015.6
20260508085020 38 0.0 0.0 0.00 0.00 0.00 97 1015.5
20260508084018 38 0.0 0.0 0.00 0.00 0.00 96 1015.5
20260508083040 39 0.0 0.0 0.00 0.00 0.00 97 1015.5
20260508082020 39 0.0 0.0 0.00 0.00 0.00 96 1015.6
20260508081018 39 0.0 0.0 0.00 0.00 0.00 96 1015.6
20260508080018 39 0.0 0.0 0.00 0.00 0.00 96 1015.6
20260508075040 39 0.0 0.0 0.00 0.00 0.00 96 1015.5
20260508074020 39 0.0 0.0 0.00 0.00 0.00 96 1015.5
20260508073018 39 0.0 0.0 0.00 0.00 0.00 96 1015.6
20260508072020 39 0.0 0.0 0.00 0.00 0.00 96 1015.6
20260508071020 39 0.0 0.0 0.00 0.00 0.00 96 1015.6
20260508070020 39 0.0 0.0 0.00 0.00 0.00 96 1015.7
20260508065018 40 0.0 0.0 0.00 0.00 0.00 96 1015.7
20260508064018 40 0.0 0.0 0.00 0.00 0.00 96 1015.8
20260508063020 40 0.0 0.0 0.00 0.00 0.00 95 1015.9
20260508062040 40 0.0 0.0 0.00 0.00 0.00 95 1016.0
20260508061018 40 0.0 0.0 0.00 0.00 0.00 95 1016.2
20260508060018 41 0.0 0.0 0.00 0.00 0.00 95 1016.2
20260508055020 41 0.0 0.0 0.00 0.00 0.00 95 1016.2
20260508054020 41 0.0 0.0 0.00 0.00 0.00 95 1016.2
20260508053020 41 0.0 0.0 0.00 0.00 0.00 95 1016.4
20260508052024 41 0.0 0.0 0.00 0.00 0.00 94 1016.4
20260508051020 41 0.0 0.0 0.00 0.00 0.00 94 1016.3
20260508050020 42 0.0 0.0 0.00 0.00 0.00 94 1016.3
20260508045038 42 0.0 0.0 0.00 0.00 0.00 94 1016.1
20260508044020 42 0.0 0.0 0.00 0.00 0.00 94 1016.2
20260508043023 42 0.0 0.0 0.00 0.00 0.00 94 1016.3
20260508042018 42 0.0 0.0 0.00 0.00 0.00 94 1016.2
20260508041018 42 0.0 0.0 0.00 0.00 0.00 93 1016.2
20260508040020 42 0.0 0.0 0.00 0.00 0.00 93 1016.2
20260508035020 43 0.0 0.0 0.00 0.00 0.00 93 1016.1
20260508034040 43 0.0 0.0 0.00 0.00 0.00 92 1016.2
20260508033018 43 0.0 0.0 0.00 0.00 0.00 92 1016.2
20260508032018 43 0.0 0.0 0.00 0.00 0.00 91 1016.2
20260508031020 43 0.0 0.0 0.00 0.00 0.00 90 1016.2
20260508030020 43 0.0 0.0 0.00 0.00 0.00 89 1016.1
20260508025018 44 0.0 0.0 0.00 0.00 0.00 88 1016.1
20260508024019 44 0.0 0.0 0.00 0.00 0.00 87 1016.0
20260508023018 44 0.0 0.0 0.00 0.00 0.00 86 1015.8
20260508022020 45 0.0 0.0 0.00 0.00 0.00 86 1015.8
20260508021020 45 0.0 0.0 0.00 0.00 0.00 84 1015.6
20260508020018 46 0.0 0.0 0.00 0.00 0.00 83 1015.6
20260508015038 46 0.0 0.0 0.00 0.00 0.00 84 1015.4
20260508014020 47 0.0 0.0 0.00 0.00 0.00 82 1015.3
20260508013018 48 0.0 0.0 0.00 0.00 0.00 81 1015.2
20260508012018 48 0.0 0.0 0.00 0.00 0.00 79 1015.1
20260508011018 49 0.0 0.0 0.00 0.00 0.00 79 1014.9
20260508010018 50 0.0 0.0 0.00 0.00 0.00 76 1015.0
20260508005018 51 0.0 0.0 0.00 0.00 0.00 74 1014.8
20260508004040 53 0.0 0.0 0.00 0.00 0.00 71 1014.8
20260508003021 54 0.0 0.0 0.00 0.00 0.00 68 1014.8
20260508002020 55 0.0 0.0 0.00 0.00 0.00 64 1014.7
20260508001038 57 0.0 0.0 0.00 0.00 0.00 59 1014.6
20260508000018 58 0.0 0.0 0.00 0.00 0.00 49 1014.6